Abilene, TX

9:06 AM CDT on August 27, 2016 (GMT -0500)
Abilene Regional

Weather History for KABI - July, 2014

Change the Weather History Date:

Thursday, July 3, 2014

  Actual Average Record
Temperature  
Mean Temperature 78 °F 82 °F  
Max Temperature 86 °F 93 °F 106 °F (1980)
Min Temperature 70 °F 71 °F 60 °F (2013)
Degree Days  
Heating Degree Days 0 0  
Month to date heating degree days 0 0  
Since 1 June heating degree days 0 1  
Since 1 July heating degree days 0 0  
Cooling Degree Days 13 17  
Month to date cooling degree days 50 51  
Year to date cooling degree days 1031 883  
Since 1 June cooling degree days 517 486  
Growing Degree Days 28 (Base 50)    
Moisture  
Dew Point 66 °F    
Average Humidity 67    
Maximum Humidity 90    
Minimum Humidity 44    
Precipitation  
Precipitation T in 0.07 in 3.20 in (1932)
Month to date precipitation 0.27 0.21  
Year to date precipitation 8.01 12.71  
Sea Level Pressure  
Sea Level Pressure 30.09 in    
Wind  
Wind Speed 11 mph (ESE)    
Max Wind Speed 20 mph    
Max Gust Speed 25 mph    
Visibility 10 miles    
Events      
T = Trace of Precipitation, MM = Missing Value Source: NWS Daily Summary

Daily Weather History Graph

Daily Weather History Graph

Search for Another Location

Airport or City:

Trip Planner

Search our weather history database for the weather conditions in past years. The results will help you decide how hot, cold, wet, or windy it might be!

Date:

Astronomy

Jul. 03, 2014 Rise Set
Actual Time 6:36 AM CDT 8:49 PM CDT
Civil Twilight 6:07 AM CDT 9:18 PM CDT
Nautical Twilight 5:33 AM CDT 9:52 PM CDT
Astronomical Twilight 4:55 AM CDT 10:29 PM CDT
Moon 12:15 PM CDT (7/3) 12:02 AM CDT (7/3)
Length of Visible Light 15h 10m
Length of Day
14h 13m
Waxing Crescent, 33% of the Moon is Illuminated
Jul 3
Waxing Crescent
Jul 5
First Quarter
Jul 12
Full
Jul 18
Last Quarter
Jul 26
New

Hourly Weather History & Observations

Time (CDT) Temp. Heat Index Dew Point Humidity Pressure Visibility Wind Dir Wind Speed Gust Speed Precip Events Conditions
12:52 AM 73.0 °F - 66.9 °F 81% 30.06 in 10.0 mi East 8.1 mph - N/A   Scattered Clouds
1:52 AM 73.0 °F - 68.0 °F 84% 30.06 in 10.0 mi ESE 6.9 mph - N/A   Clear
2:52 AM 73.0 °F - 68.0 °F 84% 30.06 in 10.0 mi East 12.7 mph - N/A   Clear
3:52 AM 73.0 °F - 68.0 °F 84% 30.06 in 10.0 mi ESE 10.4 mph - N/A   Clear
4:52 AM 72.0 °F - 66.9 °F 84% 30.06 in 10.0 mi SSE 3.5 mph - N/A   Clear
5:52 AM 70.0 °F - 66.9 °F 90% 30.08 in 10.0 mi SE 4.6 mph - N/A   Clear
6:52 AM 70.0 °F - 66.9 °F 90% 30.10 in 10.0 mi East 5.8 mph - N/A   Mostly Cloudy
7:52 AM 72.0 °F - 66.9 °F 84% 30.09 in 10.0 mi SE 4.6 mph - N/A   Clear
9:52 AM 78.1 °F - 68.0 °F 71% 30.13 in 10.0 mi ENE 4.6 mph - N/A   Clear
10:52 AM 78.1 °F - 69.1 °F 74% 30.15 in 10.0 mi NE 13.8 mph - N/A   Mostly Cloudy
11:52 AM 80.1 °F 82.7 °F 68.0 °F 67% 30.14 in 10.0 mi NE 15.0 mph 23.0 mph N/A   Partly Cloudy
12:52 PM 77.0 °F - 66.9 °F 71% 30.15 in 10.0 mi ENE 17.3 mph 25.3 mph N/A   Clear
2:52 PM 80.1 °F 81.9 °F 64.9 °F 60% 30.12 in 10.0 mi ESE 15.0 mph - 0.00 in   Clear
3:52 PM 81.0 °F 82.7 °F 64.9 °F 58% 30.09 in 10.0 mi SE 13.8 mph - N/A   Clear
4:52 PM 82.0 °F 84.1 °F 66.0 °F 58% 30.07 in 10.0 mi ESE 13.8 mph - N/A   Clear
5:52 PM 84.0 °F 84.4 °F 61.0 °F 46% 30.05 in 10.0 mi ESE 16.1 mph - N/A   Clear
6:52 PM 84.0 °F 84.9 °F 63.0 °F 49% 30.04 in 10.0 mi ESE 15.0 mph - N/A   Clear
7:52 PM 82.0 °F 83.4 °F 64.0 °F 54% 30.05 in 10.0 mi ESE 15.0 mph - N/A   Clear
8:52 PM 80.1 °F 82.1 °F 66.0 °F 62% 30.06 in 10.0 mi ESE 16.1 mph - N/A   Clear
9:52 PM 77.0 °F - 66.0 °F 69% 30.08 in 10.0 mi ESE 13.8 mph - N/A   Clear
10:52 PM 75.9 °F - 66.0 °F 71% 30.10 in 10.0 mi ESE 11.5 mph - N/A   Clear
11:52 PM 73.9 °F - 66.0 °F 76% 30.11 in 10.0 mi SE 10.4 mph - N/A   Clear